星链-1896 (STARLINK-1896 )

导读 | 豆包AI

STARLINK-1896是美国太空探索技术公司SpaceX发射的星链(Starlink)系列低轨互联网通信卫星,于2020年10月24日发射入轨。它隶属于全球规模最大的低轨卫星互联网星座,主要为地面传统网络覆盖不足的区域提供高速卫星互联网接入服务,支撑星链面向全球各类用户的移动通信与互联网服务,是星链星座实现全球覆盖组网的重要组成单元。

基本信息
目录编号:
46760
目录名称:
STARLINK-1896
国际标识:
2020-074X
轨道中心:
EARTH
卫星名称:
星链-1896
卫星全名:
星链-1896 (STARLINK-1896 )
卫星状态:
已陨落 最后检测时间 2025-01-25
发射日期:
2020-10-24 UTC
国别 :
美国 (US)
星等 :
--
轨道信息
数据来源 国际轨道数据
星历时间: 2025-01-25T23:06:22+0800
轨道信息已过期412天
半长轴: 6530.389km
偏心率: 0.0001952
轨道倾角: 53.034°
近地点辐角 184.173°
升交点赤经 337.334°
平近点角 331.551°
近地点: 150.979km
远地点: 153.529km
周期: 87.532分钟
每日圈数: 16.451073
详细信息
固有亮度:
5
最大亮度:
2.5
卫星平台:
Starlink V1.0
覆盖范围:
全球
运营商:
太空探索技术公司
运营商所在国:
美国
制造商(研发单位):
太空探索技术公司
制造商所在国:
美国
使用方式:
暂无
卫星简介
星链(Starlink)计划是由太空探索技术公司(SpaceX)提出的一个巨型低轨卫星互联网星座项目,计划在2019年至2024年间在太空搭建由约1.2万颗卫星组成的“星链”网络,其中1584颗将部署在地球上空550千米处的近地轨道,并从2020年开始工作。该卫星仍在工作。